星链-3664 (STARLINK-3664 )

导读

STARLINK-3664是美国太空探索技术公司星链星座的一员,星链旨在构建覆盖全球的卫星互联网星座。该卫星于2022年3月9日发射,属于低轨通信卫星,承担为全球偏远地区等提供宽带互联网接入服务的任务,推进了星链全球组网进程,也反映了美国低轨卫星星座的快速建设节奏。

基本信息
目录编号:
51984
目录名称:
STARLINK-3664
国际标识:
2022-025AE
轨道中心:
EARTH
卫星名称:
星链-3664
卫星全名:
星链-3664 (STARLINK-3664 )
卫星状态:
在轨 (已飞行1640 天)
发射日期:
2022-03-09 UTC
国别 :
美国 (US)
星等 :
--
轨道信息
数据来源 国际轨道数据
星历时间: 2026-09-03T22:30:59+0800
15小时前
查看轨道信息
半长轴: 6837.865km
偏心率: 0.0001127
轨道倾角: 53.161°
近地点辐角 82.212°
升交点赤经 314.715°
平近点角 277.901°
近地点: 458.957km
远地点: 460.499km
周期: 93.787分钟
每日圈数: 15.354018
详细信息
固有亮度:
5
最大亮度:
2.5
卫星平台:
Starlink v1.5
覆盖范围:
全球
运营商:
太空探索技术公司
运营商所在国:
美国
制造商(研发单位):
太空探索技术公司
制造商所在国:
美国
使用方式:
暂无
卫星简介
星链(Starlink)计划是由太空探索技术公司(SpaceX)提出的一个巨型低轨卫星互联网星座项目,计划在2019年至2024年间在太空搭建由约1.2万颗卫星组成的“星链”网络,其中1584颗将部署在地球上空550千米处的近地轨道,并从2020年开始工作。该卫星仍在工作。
2D轨道图
3D轨道图
轨道高度分析图
轨道倾角分析图
轨道综合分析图
查看轨道综合分析图
交会数据列表
事件ID 空间交会对象 最接近时刻(TCA) 交会距离 交会风险概率(CRP) 交会风险指数(CRI) 操作
CDM_260906-063201-258605-198421
SL-3 R/B (12586)
2026-09-06T
06:32:19+0000
0.621 km
远距离
6.525216E-5 中风险 0.71
CDM_260903-063102-360605-198429
CERISE (23606)
2026-09-03T
06:31:22+0000
2.226 km
极远距离
2.192425E-6 低风险 0.42
CDM_260903-151005-198405-883822
2026-09-03T
15:10:03+0000
2.597 km
极远距离
1.422427E-6 低风险 0.38
CDM_260903-050505-198406-294821
2026-09-03T
05:05:36+0000
2.796 km
极远距离
1.30861E-6 低风险 0.37
CDM_260903-130505-198405-785921
2026-09-03T
13:05:40+0000
2.887 km
极远距离
1.211622E-6 低风险 0.37
CDM_260903-080005-198406-170421
2026-09-03T
08:00:39+0000
2.905 km
极远距离
1.025056E-6 低风险 0.35
CDM_260903-021605-198406-936621
2026-09-03T
02:16:00+0000
2.999 km
极远距离
1.007504E-6 低风险 0.35
CDM_260903-040305-198406-853521
2026-09-03T
04:03:03+0000
2.685 km
极远距离
9.253937E-7 极低风险 0.34
CDM_260904-084605-198406-693121
2026-09-04T
08:46:45+0000
2.901 km
极远距离
8.887124E-7 极低风险 0.34
CDM_260903-162505-198406-509921
2026-09-03T
16:25:03+0000
2.665 km
极远距离
7.554309E-7 极低风险 0.33